GFSNE_con_sbcape_105.txt.gz
CAPE
15 9 17 24 95 63 3 0 14 4 5 3 3 3 0 0 13 0 0 0 0 0 0 0 0 0 0 0 0 0 10 23 30 4 0 10 22 21
7 11 21 49 41 74 75 109 34 9 7 1 0 1 0 1 20 28 7 0 0 0 0 0 0 0 0 0 0 0 0 0 0 0 0 0 1 1
4 7 14 79 30 24 63 35 7 68 25 0 0 0 1 1 27 50 42 10 0 0 0 0 0 0 0 0 0 0 0 0 0 0 0 0 1 1
19 33 80 29 63 21 4 0 11 0 38 0 0 0 0 0 83 83 5 2 1 0 0 1 1 0 0 0 0 0 0 0 0 0 2 3 6 7
14 26 6 2 3 4 3 1 4 0 0 0 0 0 0 3 29 3 3 4 3 4 2 0 0 0 0 0 1 1 1 1 1 1 1 2 4 6
1 0 1 1 2 18 1 2 1 1 1 0 0 0 0 8 1 1 4 5 4 3 2 1 2 3 3 3 4 4 4 4 4 3 1 1 2 2
0 0 1 2 1 1 2 0 1 2 2 0 0 0 0 0 0 1 2 4 6 5 7 7 4 6 5 5 7 6 4 3 3 2 1 1 0 0
0 1 0 1 1 1 0 0 0 1 1 1 0 0 0 0 0 0 0 1 2 2 2 2 2 2 2 4 6 4 3 1 2 2 0 0 0 0
1 1 0 0 0 0 0 0 0 0 0 0 0 0 0 0 0 0 0 0 0 0 0 1 1 1 2 4 5 5 3 5 4 0 0 0 0 0
2 2 2 1 1 0 0 0 1 0 0 0 0 0 0 0 0 0 0 0 0 0 0 2 1 2 1 4 6 7 8 8 2 0 0 0 0 0
3 3 1 2 2 1 0 0 0 1 2 2 1 1 1 1 0 0 0 0 0 0 0 1 1 3 1 0 1 11 7 3 0 0 0 0 0 0
4 5 5 3 1 0 0 0 0 0 0 0 0 0 0 0 0 0 0 0 0 0 0 0 0 1 1 2 1 4 4 0 0 0 0 0 0 0
4 5 8 7 4 3 2 3 1 1 1 1 0 0 0 0 0 0 0 0 0 0 0 0 0 1 4 4 5 1 0 0 0 0 0 0 0 0
1 1 4 9 6 5 3 4 1 0 0 1 0 0 0 0 1 1 1 1 1 3 3 1 1 1 2 7 5 0 0 0 0 0 0 0 0 0
3 5 7 6 4 3 4 2 1 1 1 0 0 1 3 7 5 1 0 0 0 0 0 0 0 0 0 0 0 0 0 0 0 0 0 0 0 0
2 4 4 3 2 3 5 6 8 7 2 3 3 3 3 3 2 2 1 1 0 0 0 0 0 0 0 0 0 0 0 0 0 0 0 0 0 0
2 4 4 4 3 3 3 2 4 3 3 4 4 4 3 2 2 3 2 1 1 0 0 0 0 0 0 0 0 0 0 0 0 0 0 0 0 0
0 1 3 3 2 1 1 1 2 2 3 2 2 1 0 0 0 1 1 0 0 0 0 0 0 0 0 0 0 0 0 0 0 0 0 0 0 0
0 1 2 2 1 0 0 0 0 0 0 0 2 2 1 0 0 0 0 0 0 0 0 0 0 0 0 0 0 0 0 0 0 0 0 0 0 0
0 0 1 1 0 0 0 0 0 0 0 0 1 2 2 1 0 0 0 0 0 0 0 0 0 0 0 0 0 0 0 0 0 0 0 0 0 0
0 0 1 0 0 0 0 0 0 1 1 1 2 1 3 1 0 0 0 0 0 0 0 0 0 0 0 0 0 0 0 0 0 0 0 1 0 0
3 2 1 2 1 1 2 1 1 2 1 1 3 3 4 2 1 0 1 0 0 0 0 0 0 0 0 0 0 0 0 0 0 0 0 0 2 3
4 3 5 5 4 3 1 1 0 0 0 1 2 1 2 1 1 1 1 0 0 0 0 0 0 0 0 0 0 0 0 0 0 0 0 0 0 0

GFSNE_con_sbcape_108.txt.gz
CAPE
748 391 197 157 179 110 18 8 14 5 9 11 20 11 17 8 0 0 0 0 0 0 0 0 0 0 2 9 10 15 20 32 40 43 39 46 60 45
529 417 139 194 119 182 252 188 121 13 40 22 30 29 13 1 0 22 26 14 0 0 0 0 0 0 0 0 0 0 2 3 0 0 0 0 0 0
335 353 94 210 105 142 274 258 160 142 59 9 83 92 10 18 1 0 31 63 53 0 0 0 0 0 0 0 0 0 0 0 0 0 0 0 1 0
200 69 122 36 41 81 52 120 123 118 166 28 2 38 27 4 0 2 26 52 47 0 0 0 0 0 0 0 0 0 0 0 0 0 0 0 3 4
116 145 143 154 162 211 165 45 33 54 37 38 12 9 11 2 3 0 1 1 2 2 0 0 0 0 0 0 0 0 0 0 0 0 0 0 0 4
1 1 0 0 1 2 4 12 6 3 7 10 3 3 8 3 0 0 2 3 4 3 5 3 2 3 2 1 1 1 2 2 1 1 0 0 0 1
1 0 1 1 1 1 2 4 8 2 1 1 0 0 1 5 0 0 1 2 6 4 4 5 5 4 6 5 7 6 5 5 5 4 2 1 0 0
0 1 1 1 0 0 1 1 0 1 2 1 0 1 0 0 0 0 0 0 1 2 3 2 2 3 4 3 5 5 5 5 5 3 2 1 0 0
1 1 1 1 2 1 0 0 0 1 0 0 0 1 0 0 0 0 0 0 1 0 0 1 1 0 2 7 8 8 6 6 4 4 3 1 0 0
3 3 3 2 1 1 0 3 4 2 1 0 0 0 0 0 0 0 0 0 0 0 0 2 2 2 0 3 6 7 10 7 7 5 1 0 0 0
3 4 3 2 1 0 1 2 3 5 5 5 2 1 1 0 0 0 0 0 0 0 0 0 3 0 0 0 1 12 11 8 8 7 5 0 0 0
4 5 8 5 2 1 1 1 1 1 1 1 1 0 0 0 0 0 0 0 0 0 0 1 0 0 0 2 3 2 4 5 5 0 0 0 0 0
3 4 8 7 7 5 3 2 3 3 1 1 0 0 0 0 0 0 0 0 0 0 1 0 0 3 3 2 4 7 4 2 0 0 0 0 0 0
3 4 5 8 6 5 4 4 2 1 2 0 0 2 2 3 2 2 1 1 1 1 2 1 2 5 4 6 4 9 5 0 0 0 0 0 0 0
13 11 6 5 4 3 5 4 2 4 2 3 5 5 4 7 6 3 5 4 3 1 2 2 3 2 4 7 5 7 2 0 0 0 0 0 0 0
5 11 7 6 5 7 5 7 10 7 6 9 11 10 8 4 6 4 3 4 4 2 3 3 5 2 3 2 1 2 0 0 0 0 0 0 0 0
8 9 10 11 7 7 6 5 7 10 10 8 8 7 3 1 1 1 1 0 0 0 0 0 0 0 0 0 0 0 0 0 0 0 0 0 0 0
1 3 5 5 1 2 1 2 4 2 3 2 2 0 0 0 0 0 0 0 0 0 0 0 0 0 0 0 0 0 0 0 0 0 0 0 0 0
1 4 7 5 0 0 0 0 0 0 0 2 4 5 1 0 0 0 0 0 0 0 0 0 0 0 0 0 0 0 0 0 0 0 0 0 0 0
0 2 4 2 0 0 0 0 1 3 2 1 4 6 5 2 1 0 1 0 0 0 0 0 0 0 0 2 2 2 0 0 0 0 0 0 0 0
0 0 3 1 0 0 7 7 5 5 8 9 8 5 8 3 2 1 0 0 0 0 0 0 0 0 0 0 5 3 0 0 0 0 0 0 0 0
6 3 4 7 7 6 10 9 8 6 5 5 10 11 10 5 4 2 3 1 0 0 0 0 0 0 0 0 0 0 0 0 0 0 0 0 0 1
13 10 13 10 9 8 6 7 5 6 3 5 6 3 7 4 3 3 2 0 0 0 0 0 0 0 0 0 0 0 0 0 0 0 0 0 0 0

GFSNE_con_sbcape_111.txt.gz
CAPE
1540 1541 1239 905 872 484 342 132 118 6 45 41 153 24 14 14 9 1 0 0 0 0 0 0 1 1 4 9 10 12 17 18 20 27 31 43 54 58
1249 1024 939 744 545 479 401 418 264 113 86 44 87 115 18 10 4 2 0 0 0 0 0 0 0 0 0 0 1 3 10 11 17 27 27 29 31 20
929 882 828 631 553 345 314 275 408 265 147 96 84 144 93 22 8 3 0 0 0 0 0 0 0 0 0 0 0 0 2 8 7 7 4 0 0 0
860 772 762 552 516 465 496 383 360 253 191 83 146 159 96 4 4 1 2 1 15 0 0 0 0 0 0 0 0 0 0 0 0 0 0 0 0 2
766 714 610 345 302 260 283 199 344 286 116 154 50 22 76 11 6 0 0 0 0 0 1 0 0 0 0 0 0 0 0 0 0 0 0 0 0 0
268 237 92 61 73 18 2 39 67 101 39 16 12 19 7 3 0 0 1 1 1 2 0 0 0 0 1 1 1 0 0 0 0 0 0 0 0 0
0 0 0 1 1 1 0 0 3 9 9 8 14 1 0 0 0 0 0 0 1 1 1 2 1 1 1 9 6 2 1 2 2 2 2 1 1 1
0 0 1 1 0 0 1 2 1 3 2 7 3 1 0 0 0 0 0 0 0 1 0 0 1 1 1 1 3 4 5 5 4 3 3 2 1 0
1 1 1 1 0 1 0 1 2 2 1 2 0 0 0 0 0 0 0 0 0 0 0 0 0 0 1 4 7 7 7 7 3 3 5 3 2 1
2 2 2 2 1 1 1 3 3 3 3 3 2 1 0 0 0 0 0 0 0 0 0 0 0 1 0 0 8 8 7 5 8 7 6 5 2 0
3 4 2 2 1 1 1 2 2 4 4 3 3 3 1 1 0 0 0 0 0 0 0 0 1 0 0 1 0 9 6 6 6 6 5 3 1 0
2 4 8 3 2 1 2 2 1 2 1 1 1 0 1 0 0 0 0 0 0 0 0 0 0 0 0 0 0 0 2 5 6 6 4 0 0 0
1 2 6 7 5 3 1 3 3 3 2 1 0 0 0 1 0 0 0 0 0 0 0 0 0 1 1 1 4 1 0 1 3 3 1 0 0 0
0 1 4 9 10 6 4 4 1 1 0 0 0 1 0 0 0 0 0 0 0 0 0 0 1 0 0 1 2 6 3 3 1 0 0 0 0 0
4 5 5 7 7 3 5 5 3 2 0 0 0 1 2 2 1 1 1 0 0 0 1 0 0 2 5 7 2 7 8 2 0 0 0 0 0 0
8 12 5 3 4 8 11 12 12 12 12 12 10 11 9 9 6 4 1 0 0 0 1 1 1 1 1 4 2 4 0 0 0 0 0 0 0 0
11 14 13 15 11 9 9 9 12 10 9 14 11 6 2 2 1 2 0 0 2 0 0 0 0 0 0 0 1 0 0 0 0 0 0 0 1 3
8 10 13 10 6 5 3 1 2 1 2 2 3 1 0 0 0 0 0 0 0 0 0 0 0 0 0 0 0 0 0 0 0 0 0 0 0 2
7 11 13 10 1 0 0 0 1 1 1 3 3 2 1 0 0 0 0 0 0 0 0 0 0 0 0 0 0 0 0 0 0 0 0 0 0 0
0 2 4 3 0 0 0 1 3 4 3 3 5 6 5 2 1 1 1 0 0 0 0 0 0 0 0 0 1 0 0 0 0 0 0 0 0 0
0 0 1 1 1 2 7 6 4 1 5 7 6 5 7 3 2 0 0 0 0 0 0 0 0 0 0 0 1 1 0 0 0 0 0 0 0 0
6 4 4 6 8 6 9 9 7 6 5 4 7 9 9 6 3 2 3 1 0 0 0 0 0 0 0 0 0 0 0 0 0 0 0 0 0 0
11 10 10 11 9 7 6 9 7 8 4 4 7 5 5 5 3 3 1 0 0 0 0 0 0 0 0 0 0 0 0 0 0 0 0 0 0 0

GFSNE_con_sbcape_114.txt.gz
CAPE
1270 1016 862 581 466 367 292 297 191 144 75 62 44 0 0 31 19 0 0 0 0 0 0 0 0 0 0 4 9 7 11 8 11 19 19 19 24 28
729 488 509 56 206 411 251 132 90 53 27 36 15 8 0 0 0 1 0 0 0 0 0 0 0 0 0 0 0 0 6 11 7 8 14 10 17 26
1102 847 278 0 212 354 204 214 113 74 42 25 35 39 12 0 0 1 11 0 0 0 0 0 0 0 0 0 0 0 0 2 8 11 13 21 36 36
1014 962 612 430 311 318 253 190 126 128 64 36 30 34 14 0 0 1 1 0 0 0 0 0 0 0 0 0 0 0 0 0 0 7 17 15 31 23
1025 671 559 498 405 344 242 186 155 102 66 41 15 8 44 7 6 0 1 1 0 0 1 0 0 0 0 0 0 0 0 0 0 0 0 0 0 0
654 422 217 188 165 95 26 6 1 14 35 39 11 4 3 5 12 0 0 0 0 0 0 0 1 0 0 0 0 0 0 0 0 0 0 0 0 0
1 0 0 1 1 0 0 0 0 0 1 5 4 3 1 0 0 0 0 0 0 0 1 0 0 0 0 0 0 0 1 1 0 0 0 0 0 0
1 1 2 1 1 1 2 2 0 0 1 1 2 3 4 0 0 0 0 0 0 0 0 0 0 0 0 0 0 0 2 3 6 7 2 4 2 3
5 2 2 1 0 1 2 2 2 3 1 2 2 1 1 1 1 0 0 0 0 0 0 0 0 0 0 2 4 5 6 7 7 7 6 5 5 3
2 0 0 0 0 0 1 1 1 1 1 1 1 1 1 0 0 0 0 0 0 0 0 0 0 0 0 0 8 8 7 5 5 4 3 3 4 3
1 0 0 0 1 2 0 1 0 0 2 3 4 3 2 1 0 0 0 0 0 0 0 0 0 0 0 0 0 6 7 6 5 6 6 6 6 4
0 0 5 2 0 1 0 0 0 0 0 0 0 0 0 0 1 0 1 0 0 0 0 0 0 0 0 0 2 1 2 5 7 7 8 4 2 1
0 0 3 11 10 7 2 1 0 0 0 0 0 0 0 0 0 0 0 0 0 0 0 0 0 0 0 0 0 0 0 0 0 2 6 4 0 0
0 0 4 12 13 9 3 4 2 0 0 0 0 0 0 0 0 0 0 0 0 0 0 0 0 0 0 0 0 0 0 0 0 1 1 0 0 0
0 6 6 7 6 1 6 3 0 0 0 0 0 0 0 0 0 0 0 0 0 0 0 0 0 0 0 0 0 0 1 4 1 1 0 0 0 0
0 0 0 1 0 0 0 1 0 0 0 0 0 1 0 0 0 0 0 0 0 0 0 0 0 0 0 0 0 0 0 1 0 0 0 0 0 0
0 0 0 0 0 0 0 0 0 0 0 0 0 0 0 0 1 1 1 0 0 0 0 0 0 0 0 0 0 0 0 1 0 0 0 2 9 1
0 0 0 0 0 0 0 0 0 0 0 0 0 0 0 0 0 0 1 0 0 1 1 0 0 0 0 0 0 1 0 0 0 0 0 0 0 0
0 0 0 0 0 0 0 0 0 0 0 0 0 0 0 0 0 0 0 0 0 0 0 0 0 0 0 0 0 0 0 0 0 0 0 0 0 0
0 0 0 0 0 0 0 0 0 0 0 0 0 0 0 0 0 0 0 0 0 0 0 0 0 0 0 0 0 0 0 0 0 0 0 0 0 0
0 0 0 0 0 0 0 0 0 0 0 0 0 0 0 0 0 0 0 0 0 0 0 0 0 0 0 0 0 0 0 0 0 0 0 0 0 0
0 0 0 0 0 0 0 0 0 0 0 0 0 0 0 0 0 0 0 0 0 0 0 0 0 0 0 0 0 0 0 0 0 0 0 0 0 0
0 0 0 0 0 0 0 0 0 0 0 0 0 0 0 0 0 0 0 0 0 0 0 0 0 0 0 0 0 0 0 0 0 0 0 0 0 0

GFSNE_con_sbcape_117.txt.gz
CAPE
1255 954 716 579 501 199 125 124 137 108 30 4 32 3 26 1 15 0 0 0 1 1 1 0 0 0 0 0 0 0 1 5 14 16 22 30 33 33
1325 1117 750 445 161 160 107 94 78 19 86 0 5 0 0 0 0 0 0 0 1 1 1 1 0 0 0 0 0 0 2 4 2 0 7 14 23 20
1173 982 704 170 179 155 56 3 74 52 84 1 3 0 0 0 0 0 0 0 0 1 1 1 0 0 0 0 0 0 2 0 0 0 2 5 13 19
1178 944 573 113 68 0 0 0 41 25 27 7 0 0 0 0 0 0 0 0 0 0 1 1 1 1 1 0 0 0 0 0 0 0 3 8 12 22
1011 963 915 363 26 30 100 177 153 81 20 0 0 0 0 0 0 0 0 1 0 0 0 1 1 1 1 1 0 0 0 0 0 0 0 0 4 18
766 912 891 375 8 33 163 124 79 76 17 26 0 0 0 0 0 0 1 0 0 0 0 0 0 1 1 1 1 0 0 0 0 0 0 0 0 0
0 0 1 1 19 44 0 0 0 0 0 0 0 0 0 0 1 0 0 0 0 0 0 0 0 0 1 1 0 0 1 0 0 0 1 1 1 0
0 0 0 0 2 2 1 0 0 0 0 0 0 0 0 0 0 0 0 0 0 0 0 0 0 0 0 0 1 1 1 1 1 0 0 1 0 0
7 13 5 12 0 0 1 1 1 1 0 0 0 1 0 1 1 0 0 0 0 0 0 0 0 0 0 0 0 0 0 0 0 0 0 0 1 0
3 6 9 3 6 2 4 0 0 0 0 1 0 0 1 1 2 0 0 0 0 0 0 0 0 0 0 0 7 5 4 5 5 5 6 7 7 7
10 2 9 1 5 3 1 1 1 0 4 4 4 3 2 3 1 0 0 0 0 0 0 0 0 0 0 0 0 8 7 6 6 3 6 6 5 5
0 0 5 3 5 2 0 0 0 0 0 0 0 0 0 0 1 0 1 0 0 0 0 0 0 0 0 0 0 0 1 6 7 8 8 9 6 0
0 0 2 7 4 5 3 0 1 0 0 0 0 0 0 0 0 0 0 0 0 0 0 0 0 0 0 0 0 0 0 1 1 3 6 6 5 2
0 0 4 13 13 10 3 6 3 0 0 0 0 0 0 0 0 0 0 0 0 0 0 0 0 0 0 0 0 0 0 0 0 0 0 4 4 0
1 6 5 4 4 1 6 4 0 0 0 0 0 0 0 1 0 0 0 0 0 0 0 0 0 0 0 0 0 0 0 2 1 0 1 4 6 5
0 0 0 1 0 0 0 0 0 0 0 0 0 0 0 0 0 0 0 0 0 0 0 0 0 0 0 0 0 0 0 1 0 1 0 0 0 0
0 0 0 0 0 0 0 0 0 0 0 0 0 0 0 0 0 0 0 0 0 0 0 0 0 0 0 0 0 0 0 0 0 1 0 1 0 0
0 0 0 0 0 0 0 0 0 0 0 0 0 0 0 0 0 0 0 0 0 0 0 0 0 0 0 0 2 0 0 0 2 2 1 1 2 3
0 0 0 0 0 0 0 0 0 0 0 0 0 0 0 0 0 0 0 0 0 0 0 0 0 0 0 0 1 1 0 0 1 0 0 1 0 0
0 0 0 0 0 0 0 0 0 0 0 0 0 0 0 0 0 0 0 0 0 0 0 0 0 0 0 0 0 0 0 0 0 0 0 0 0 0
1 2 0 0 0 0 0 0 0 0 0 0 0 0 0 0 0 0 0 0 0 0 0 0 0 0 0 0 0 0 0 0 0 0 0 0 0 0
0 0 0 0 0 0 0 0 0 0 0 0 0 0 0 0 0 0 0 0 0 0 0 0 0 0 0 0 0 0 0 0 0 0 0 0 0 0
0 0 0 0 0 0 0 0 0 0 0 0 0 0 0 0 0 0 0 0 0 0 0 0 0 0 0 0 0 0 0 0 0 0 0 0 0 0

GFSNE_con_sbcape_123.txt.gz
CAPE
0 115 10 44 103 112 96 4 67 47 0 0 1 14 40 40 9 0 0 1 1 1 1 1 1 1 1 0 3 7 4 7 1 2 20 39 52 40
5 24 173 228 169 193 179 68 90 168 18 10 0 0 10 26 15 0 0 1 1 1 1 1 1 1 1 1 0 0 0 0 0 0 3 19 36 33
1 8 135 305 231 307 221 204 143 155 63 60 0 0 0 3 0 0 0 0 0 1 1 1 1 1 1 1 1 0 0 0 0 0 0 2 24 27
3 1 12 450 277 369 318 315 267 111 131 55 0 1 1 0 0 0 1 0 0 1 1 1 1 1 1 1 1 1 0 0 0 0 0 0 0 12
6 2 4 282 483 332 379 446 334 154 18 95 0 0 0 0 0 0 0 0 1 1 1 1 1 1 1 1 1 1 1 1 0 0 0 0 0 0
4 6 9 146 541 581 418 490 477 338 171 116 0 0 0 0 0 0 1 1 1 0 0 1 0 1 1 1 1 1 1 1 1 0 0 0 0 0
1 0 0 0 73 655 669 683 410 136 135 82 25 0 1 0 0 0 0 1 1 0 0 0 0 0 0 0 1 0 1 1 0 0 1 1 0 0
2 1 1 1 1 0 2 1 0 24 51 14 0 0 0 0 0 0 0 1 1 0 0 0 0 0 1 1 2 0 0 1 1 0 0 1 0 0
2 2 2 2 6 3 2 1 2 0 2 0 0 0 0 0 0 1 1 0 0 0 0 1 0 0 1 2 3 2 0 1 1 1 0 1 1 1
1 1 1 1 1 3 1 2 2 7 2 1 1 1 0 0 0 0 0 0 0 0 0 0 0 0 0 0 4 3 1 0 0 1 1 1 1 1
1 2 0 1 4 1 0 1 4 3 4 9 6 4 4 1 0 0 1 0 1 0 0 0 0 0 0 0 0 6 4 2 1 0 0 0 0 0
0 0 14 5 7 2 0 0 0 0 0 0 0 1 0 0 1 0 0 0 0 0 0 0 0 0 0 0 0 0 0 5 6 6 5 4 1 0
0 0 1 13 11 8 4 0 1 0 0 0 0 0 0 0 0 0 0 0 0 0 0 0 0 0 0 0 0 0 0 0 0 1 6 5 2 0
0 0 1 11 8 7 2 6 4 0 0 0 0 0 0 0 0 0 0 0 0 0 0 0 0 0 0 0 0 0 0 0 0 0 0 3 4 3
0 0 1 1 1 1 4 2 0 0 0 0 0 0 0 0 0 0 0 0 0 0 0 0 0 0 0 0 1 0 0 0 0 0 0 0 0 0
0 0 0 0 0 0 0 0 0 0 0 0 0 0 0 0 0 0 0 0 0 0 0 0 0 0 0 0 0 0 0 0 0 0 0 0 0 0
0 0 0 0 0 0 0 0 0 0 0 0 0 0 0 0 0 0 0 0 0 0 0 0 0 0 0 0 0 0 0 0 0 1 0 0 1 1
0 0 0 0 0 0 0 0 0 0 0 0 0 0 0 0 0 0 0 0 0 0 0 0 0 0 0 0 3 0 0 0 0 0 0 0 0 3
0 0 0 0 1 1 0 0 0 0 0 0 0 0 0 0 0 0 0 0 0 0 0 0 0 0 0 0 0 3 0 0 0 0 0 0 0 1
0 0 0 0 0 1 0 0 0 0 0 0 0 0 0 0 0 0 0 0 0 0 0 0 0 0 0 0 0 0 4 0 0 0 0 0 0 0
0 0 0 0 0 0 0 0 0 0 0 0 0 0 0 0 0 0 0 0 0 0 0 0 0 0 0 0 0 0 0 1 0 0 0 0 0 0
0 0 0 0 0 0 0 0 0 0 0 0 0 0 0 0 0 0 0 0 0 0 0 0 0 0 0 0 0 0 0 0 0 0 0 0 0 0
0 0 0 0 0 0 0 0 0 0 0 0 0 0 0 0 0 0 0 0 0 0 0 0 0 0 0 0 0 0 0 0 0 0 0 0 0 0

GFSNE_con_sbcape_129.txt.gz
CAPE
21 16 12 12 7 7 143 181 246 211 102 86 0 162 298 391 252 134 49 2 1 1 1 1 0 0 0 1 0 0 0 0 18 0 2 6 28 19
18 19 15 7 14 18 58 186 147 133 349 91 156 188 286 237 247 155 108 3 1 1 1 1 1 0 0 1 0 1 0 0 0 0 1 0 6 5
20 17 19 12 4 20 4 201 93 161 73 434 279 206 200 321 197 140 138 14 0 1 1 1 1 0 1 1 1 1 1 1 0 0 0 0 0 2
16 17 21 23 10 9 42 44 181 99 119 80 560 436 421 487 533 277 79 13 2 1 1 1 1 1 1 1 1 1 1 1 1 1 0 0 0 0
13 15 19 10 6 10 16 41 39 270 134 98 113 888 439 440 411 216 87 8 1 0 1 0 1 1 1 1 1 1 1 1 1 1 1 0 0 0
14 11 14 10 13 18 16 18 68 79 163 98 93 89 209 60 217 43 1 1 0 1 0 0 0 1 1 1 1 1 1 1 1 1 1 1 0 0
10 7 8 5 0 2 14 18 41 84 148 187 46 84 31 6 2 1 61 0 1 1 1 2 2 1 1 0 0 1 1 1 1 1 1 1 1 0
10 7 6 4 4 2 1 0 0 0 52 207 25 97 265 285 97 40 0 0 0 0 0 0 0 0 0 0 0 0 0 0 1 1 1 1 1 1
5 6 6 5 2 3 1 1 1 1 0 2 0 1 27 2 287 172 16 0 0 0 1 1 0 0 2 1 0 0 0 0 0 0 1 1 1 1
1 2 2 2 7 3 1 1 1 0 0 0 0 0 1 6 4 2 113 0 0 0 0 0 0 1 0 1 1 0 0 0 0 0 0 1 1 1
6 7 3 3 12 12 1 0 1 0 2 3 1 2 4 4 4 3 0 0 1 1 0 3 1 0 0 2 0 3 1 1 0 0 0 0 1 1
4 6 19 11 15 8 0 0 0 0 0 1 1 0 1 2 2 4 6 0 1 5 1 0 0 0 0 1 0 1 5 1 1 1 0 0 0 1
9 9 11 5 6 7 6 5 4 2 2 2 0 0 0 1 1 1 2 2 3 5 1 1 0 0 0 0 1 1 2 4 5 8 3 2 1 0
12 12 6 1 3 3 3 2 2 3 5 4 3 2 6 3 3 1 7 1 0 0 1 0 0 0 0 0 0 1 1 4 3 6 5 4 3 1
3 1 0 0 0 1 0 1 4 8 6 5 6 6 9 8 2 2 3 0 1 2 1 1 1 1 0 0 0 0 0 1 3 3 3 3 3 1
2 4 1 3 0 1 1 2 9 12 16 14 12 8 4 3 6 8 4 4 7 6 9 6 3 3 1 1 1 0 0 0 0 1 3 3 2 2
3 3 5 4 1 1 1 0 1 6 10 14 13 6 3 0 0 1 4 5 5 6 4 5 11 7 7 7 3 3 2 1 1 1 0 1 3 3
1 9 14 15 11 1 0 0 0 0 0 1 3 2 2 1 0 0 0 0 0 0 0 1 3 6 5 4 9 7 5 5 5 3 1 1 3 7
4 13 10 14 3 0 0 0 0 0 0 0 2 3 5 4 4 1 0 0 0 0 0 0 2 4 2 2 3 3 9 7 6 6 5 3 3 7
2 4 4 2 1 0 0 0 0 0 0 0 1 4 8 9 7 3 3 2 0 0 0 0 0 3 8 11 6 8 3 8 7 5 5 9 9 2
8 9 12 10 6 4 5 4 2 1 1 3 4 2 8 9 9 8 8 1 1 0 0 0 0 0 0 5 7 8 9 3 4 5 9 8 8 8
9 7 7 11 13 14 14 8 5 3 2 2 4 7 10 9 11 11 13 10 5 5 1 0 0 0 0 1 3 5 7 10 2 0 0 1 7 12
9 10 11 12 10 9 7 10 9 11 5 3 4 4 8 8 9 11 12 9 5 3 1 2 0 0 1 1 2 6 5 6 6 5 5 1 0 0

GFSNE_con_sbcape_132.txt.gz
CAPE
20 20 19 6 17 9 12 3 258 326 333 509 730 265 70 53 12 112 447 37 1 1 1 1 1 0 0 0 0 0 0 0 0 3 5 18 50 25
15 19 25 21 16 12 13 16 42 235 382 123 498 582 290 49 135 355 419 114 1 1 1 1 1 0 0 0 0 0 0 0 0 0 0 0 3 1
23 25 23 26 25 14 6 27 32 260 272 382 397 541 713 394 303 332 349 502 188 1 1 1 1 1 1 1 1 0 1 1 0 0 0 0 0 1
17 14 12 11 12 21 19 11 33 38 356 381 348 507 864 771 599 604 544 286 467 12 1 1 1 1 1 1 0 1 1 1 1 1 1 0 0 1
17 25 20 16 17 21 18 25 18 30 271 211 487 317 581 721 745 700 942 663 531 67 1 0 1 1 1 1 0 1 1 1 1 1 1 1 0 0
12 11 11 17 20 25 11 23 29 23 79 220 346 499 607 549 681 774 500 236 166 6 0 0 0 1 1 1 0 1 1 1 1 1 1 1 1 1
13 9 10 10 5 4 5 11 14 17 40 80 223 288 525 533 252 162 396 306 54 2 2 2 1 1 1 0 0 1 1 1 1 1 1 1 1 1
12 10 10 7 6 4 5 6 2 1 2 17 81 176 215 427 204 164 101 128 0 1 0 2 1 0 0 1 0 1 1 1 1 1 1 1 1 1
16 12 10 10 4 5 5 3 4 6 2 3 5 5 3 4 4 0 5 110 46 28 0 0 1 1 1 0 0 0 0 1 1 1 1 1 1 1
21 17 11 6 8 4 2 1 2 4 5 5 4 4 6 3 6 2 0 2 0 0 0 0 1 1 0 1 0 0 0 0 0 0 0 1 1 1
13 11 13 12 19 15 1 0 0 0 3 8 8 6 4 5 3 0 0 0 0 0 0 0 1 0 1 1 2 1 0 0 0 0 0 0 0 1
15 15 9 8 11 13 8 8 4 4 3 1 0 1 2 2 4 2 3 1 1 3 1 2 1 0 0 1 4 5 0 1 1 1 0 0 0 1
18 16 19 3 4 5 5 8 10 11 7 10 5 1 0 3 5 2 7 1 1 4 3 2 1 0 0 1 1 2 1 1 2 1 2 2 0 1
13 20 10 1 0 0 3 4 4 6 15 13 12 17 23 16 7 6 4 8 10 10 3 1 1 1 1 0 0 1 1 1 0 0 0 0 0 1
18 5 0 0 0 2 0 0 2 14 12 14 17 18 27 25 10 12 13 24 15 12 3 3 2 2 1 1 0 0 1 0 1 1 2 1 1 2
4 7 3 5 0 2 6 5 11 16 17 20 16 21 16 13 12 12 17 16 13 17 12 11 5 8 7 6 3 2 2 1 1 1 1 1 2 3
4 10 18 12 11 7 5 4 10 8 11 18 18 13 13 6 4 7 7 4 6 8 19 17 26 5 5 4 6 7 6 4 5 3 2 1 2 2
4 12 29 29 18 6 6 7 7 3 3 2 5 3 7 7 4 2 5 7 0 0 0 4 11 11 6 5 6 11 12 12 11 8 5 3 3 4
9 13 15 16 7 3 2 2 3 2 1 3 8 9 13 4 12 2 2 3 1 0 0 0 0 5 10 11 4 1 18 15 13 12 14 12 10 12
7 12 16 18 12 11 13 14 13 12 10 9 10 13 18 12 9 6 5 8 3 0 0 0 0 0 9 14 18 12 1 19 13 12 12 8 7 2
8 9 15 15 15 16 29 30 29 26 20 20 18 17 20 17 14 13 14 4 5 1 1 0 0 0 1 4 29 11 11 3 2 12 17 14 11 11
12 9 12 16 19 23 25 26 27 28 25 24 24 23 27 22 19 17 18 15 10 8 2 1 1 0 1 3 11 10 14 10 0 0 0 2 8 16
10 10 14 13 14 14 15 23 21 25 24 24 28 25 27 21 20 21 19 17 12 10 5 2 4 3 4 2 6 19 6 9 9 7 7 1 0 1

GFSNE_con_sbcape_138.txt.gz
CAPE
13 13 12 12 16 21 5 8 5 10 0 0 0 0 0 211 212 98 46 2 0 0 0 0 0 0 1 26 33 67 99 90 67 59 59 68 62 63
9 8 8 12 14 22 23 30 24 17 5 3 0 1 0 0 84 98 91 23 0 0 0 0 0 0 0 0 3 7 14 13 10 2 7 2 32 30
18 10 17 5 19 6 15 18 28 33 17 8 10 0 0 5 0 8 223 80 87 0 0 0 1 0 0 1 1 1 1 1 0 0 0 0 12 28
23 21 19 17 10 6 11 12 20 15 27 12 5 4 4 0 0 13 195 172 155 45 0 1 1 1 1 1 1 1 1 1 1 1 1 0 0 1
22 27 27 19 9 12 16 15 21 26 25 33 23 9 3 2 0 0 56 146 50 1 23 1 1 0 1 1 1 1 1 1 1 1 1 1 0 0
15 19 23 18 15 14 16 11 10 13 15 18 30 20 1 0 5 10 18 60 121 112 27 0 0 0 1 1 1 1 1 1 1 1 1 1 1 1
10 10 15 20 17 16 17 11 12 9 12 8 30 18 7 4 4 4 6 0 22 55 6 0 0 1 2 1 2 1 1 1 1 0 0 1 1 1
9 6 6 8 7 8 14 10 8 9 9 8 8 5 4 7 7 6 3 4 12 0 3 1 0 0 0 2 1 1 1 1 1 1 1 1 0 1
0 2 5 5 5 2 5 7 3 11 8 8 7 7 6 6 6 5 5 5 5 0 1 1 0 1 0 1 0 0 1 0 1 0 0 1 1 1
0 0 0 0 1 2 0 0 0 0 4 5 1 1 3 3 4 5 4 2 0 0 0 0 0 0 0 0 1 1 0 0 0 0 1 1 1 1
0 0 0 0 12 13 0 0 0 0 3 20 17 15 11 10 13 0 1 1 0 1 0 1 0 0 0 0 0 3 1 1 0 0 0 0 0 0
0 0 4 1 6 9 0 0 0 1 0 0 0 0 2 2 6 0 0 0 0 0 0 0 0 0 0 0 0 0 0 0 0 1 0 0 0 0
0 0 0 3 5 5 4 0 1 0 0 0 0 0 0 0 0 2 1 0 0 0 1 0 1 0 1 0 0 0 0 0 0 0 1 1 1 1
0 0 0 4 3 5 0 3 3 0 0 0 0 1 0 0 0 0 0 0 5 6 5 0 0 0 0 1 0 0 0 0 0 0 1 0 0 0
0 1 4 2 3 0 3 1 0 0 0 0 0 0 0 0 0 0 0 0 0 0 0 0 1 0 0 0 0 0 0 0 0 0 0 0 0 1
0 0 0 7 0 0 0 0 0 0 0 0 0 0 0 0 0 0 0 0 0 0 0 0 0 0 0 0 2 0 0 0 0 0 0 0 0 1
0 0 0 0 0 0 0 0 0 0 0 0 0 0 0 0 0 1 0 0 0 0 0 0 0 0 0 0 0 0 1 0 0 0 0 0 0 0
0 0 0 0 0 0 0 0 0 0 0 3 0 1 2 2 2 2 1 0 0 0 0 0 0 0 0 1 0 0 0 1 1 2 0 1 0 0
0 0 0 0 0 0 0 0 0 1 2 1 0 0 1 3 3 5 3 1 2 0 1 0 0 0 0 0 0 0 0 0 0 0 0 0 0 0
0 0 0 0 0 1 0 0 0 0 0 0 0 0 0 1 0 3 2 0 2 1 1 0 0 0 0 0 0 1 0 0 0 0 1 0 0 0
0 0 0 0 0 0 0 0 0 0 0 0 0 0 0 0 0 0 0 0 0 2 1 0 0 0 0 0 0 0 0 0 0 0 0 0 0 0
0 0 1 0 0 0 0 0 0 0 0 0 0 0 0 0 0 0 0 0 0 2 1 0 0 0 0 2 2 1 2 0 0 0 0 0 0 0
0 0 0 0 0 0 0 0 0 0 0 0 0 0 0 0 0 0 0 0 0 0 0 1 0 0 1 5 0 0 0 0 0 0 0 0 0 2

GFSNE_con_sbcape_144.txt.gz
CAPE
2 3 8 10 4 4 9 11 14 9 3 4 1 0 0 0 0 0 0 0 0 0 1 1 0 0 0 1 1 16 36 63 86 86 69 87 109 134
0 1 3 2 1 1 0 6 6 9 8 8 12 13 14 5 0 0 0 0 0 0 0 1 1 1 1 1 1 1 0 3 20 38 29 33 34 55
0 0 1 0 0 10 11 12 19 18 15 17 26 17 9 9 1 0 0 0 0 0 0 0 1 1 1 1 1 1 1 1 0 5 5 21 33 13
3 2 2 4 1 0 6 7 6 9 15 12 6 0 26 24 1 23 16 4 0 0 0 0 0 1 1 1 1 1 1 1 1 1 0 0 13 30
4 4 3 12 6 1 14 10 7 7 12 15 12 9 0 3 0 0 0 0 0 0 0 0 1 1 1 1 1 1 1 1 1 1 1 1 1 0
3 4 4 12 12 6 9 5 3 5 10 15 13 14 5 4 0 2 0 0 0 0 0 0 1 0 0 1 1 1 1 1 1 1 1 1 1 1
0 1 7 6 7 11 15 7 3 4 5 10 11 10 8 6 7 6 6 3 1 1 0 4 4 2 2 2 2 1 0 1 1 1 1 1 1 1
0 0 0 1 0 3 8 11 9 4 5 6 8 9 9 6 6 9 10 7 6 0 2 2 3 2 5 5 5 3 1 0 0 0 0 1 1 1
0 0 0 0 0 0 0 1 2 8 10 5 4 5 5 4 3 6 6 6 5 5 3 1 0 0 1 4 5 6 6 4 2 3 0 0 1 1
0 0 0 0 0 0 0 0 0 0 0 4 0 0 1 2 3 4 4 9 2 1 1 1 0 1 0 0 4 4 3 6 5 4 4 2 1 0
0 0 0 0 7 7 0 0 0 0 0 4 4 3 2 4 2 0 0 1 2 2 0 0 0 0 0 0 0 2 1 2 3 2 3 4 2 1
0 0 7 2 7 7 0 0 0 0 0 0 0 0 0 0 0 0 0 4 1 0 1 0 1 0 0 0 0 0 0 1 1 3 3 3 3 0
0 0 0 7 10 8 6 0 0 0 0 0 0 0 0 0 0 0 0 0 0 0 0 0 1 0 0 0 1 2 0 0 0 0 2 3 2 2
0 0 0 7 9 10 1 7 6 0 0 0 0 0 0 0 0 0 0 0 0 0 0 0 0 0 0 0 0 0 0 0 2 2 0 1 1 2
0 0 3 3 4 2 7 4 1 0 0 0 0 0 0 0 0 0 0 0 0 0 0 0 0 0 0 0 1 0 0 0 0 2 1 0 1 1
0 0 0 5 0 0 0 0 0 0 0 0 0 0 0 0 0 0 0 0 0 0 0 0 0 0 0 0 0 0 0 0 0 0 0 0 0 0
0 0 0 0 0 0 0 0 0 0 0 0 0 0 0 1 0 0 0 0 0 0 0 0 0 0 0 0 0 1 3 0 0 0 0 0 0 0
0 0 0 0 0 0 0 0 0 0 0 1 0 1 1 4 3 1 0 0 0 0 0 0 0 0 0 0 0 1 0 1 3 0 0 0 0 0
0 0 0 0 0 1 1 1 0 0 0 0 0 0 0 2 5 4 0 2 1 0 0 0 0 0 0 0 0 0 0 0 1 0 0 0 0 0
0 0 0 0 0 1 0 1 0 0 0 0 0 0 0 0 1 1 1 0 0 0 0 0 0 0 1 1 0 0 0 1 0 2 0 0 0 0
0 0 0 0 0 0 0 0 0 0 0 0 0 0 0 0 0 0 0 0 0 0 0 0 0 1 0 0 0 0 0 0 0 2 1 0 0 0
0 0 0 0 0 0 0 0 0 0 0 0 0 0 0 0 0 0 0 0 1 0 0 0 0 0 0 1 1 0 0 0 0 0 0 0 2 3
0 0 0 0 0 0 0 0 0 0 0 0 0 0 0 0 0 0 0 0 0 0 0 0 0 0 0 0 0 0 0 0 0 0 0 0 0 0

GFSNE_con_sbcape_150.txt.gz
CAPE
0 0 0 0 0 0 2 0 19 6 2 0 0 0 0 0 0 0 0 0 0 0 0 0 0 0 0 0 0 1 3 2 5 97 133 140 139 178
0 0 0 0 0 0 1 3 0 3 5 0 0 0 8 13 4 4 0 0 0 0 0 0 0 0 0 0 1 0 1 1 1 0 5 5 1 69
0 0 1 0 0 0 4 1 2 3 5 2 1 6 3 3 0 0 0 5 6 0 0 0 1 0 0 0 0 0 1 1 1 0 0 1 7 39
0 2 1 2 0 1 2 2 2 2 5 2 3 5 2 0 0 3 0 0 8 0 0 0 5 3 3 1 1 0 0 0 0 0 1 0 1 0
0 3 3 1 1 2 1 1 1 2 2 3 5 5 2 1 0 0 1 2 1 0 0 3 5 5 7 7 6 4 2 1 0 0 0 0 1 1
0 1 5 0 7 8 2 3 1 0 1 1 1 5 4 1 1 3 1 3 6 0 0 1 5 8 10 8 8 7 6 5 3 3 1 0 0 0
0 0 7 3 6 3 8 4 3 1 1 0 1 2 7 6 6 5 6 2 7 2 1 5 10 9 9 8 9 10 7 6 5 4 3 2 1 1
0 0 2 1 0 4 5 5 3 4 3 6 7 5 7 11 7 9 5 8 1 1 2 5 7 5 11 11 12 11 10 7 6 5 5 3 1 0
0 0 0 0 0 0 0 1 1 5 8 4 4 4 4 9 7 3 5 2 3 5 1 6 3 5 5 9 14 13 11 10 9 6 4 3 3 2
0 0 0 0 0 0 0 0 0 0 0 6 0 0 2 7 5 5 6 1 6 3 3 0 2 2 4 2 13 17 10 11 12 9 8 5 2 4
0 0 0 0 5 6 0 0 0 0 0 4 5 3 3 6 3 1 1 0 1 3 0 1 5 2 7 4 3 9 3 5 5 10 11 8 4 2
0 0 2 0 5 4 0 0 0 0 0 0 0 0 0 0 2 0 4 1 0 0 0 1 2 2 2 13 0 2 8 2 2 3 5 8 7 4
0 0 0 6 6 6 4 0 0 0 0 0 0 0 0 0 0 0 0 0 1 0 0 3 1 0 0 1 2 0 4 3 3 3 2 3 6 7
0 0 0 3 5 5 2 3 1 0 0 0 0 0 0 0 0 0 0 0 0 0 0 0 0 0 1 3 4 0 0 5 4 4 5 1 0 2
0 0 1 1 0 1 2 0 0 0 0 0 0 0 0 0 0 0 0 0 0 0 0 0 0 0 0 8 1 3 4 2 4 3 4 4 6 4
0 0 0 2 0 0 0 0 0 0 0 0 0 0 0 0 0 0 0 0 0 0 0 0 0 0 0 0 1 1 5 2 4 2 4 2 1 4
0 0 0 0 0 0 0 0 0 0 0 0 0 0 0 0 0 0 0 0 0 0 0 0 0 0 0 0 1 1 2 3 4 4 5 3 1 3
0 0 0 0 0 0 0 0 0 0 0 0 0 0 0 0 0 0 0 0 0 0 0 0 0 0 0 0 1 2 3 5 4 4 5 7 1 0
0 0 0 0 0 0 0 0 0 0 0 0 0 0 0 0 0 0 0 0 0 0 0 0 0 0 0 0 0 0 6 6 6 3 4 5 8 0
0 0 0 0 0 0 0 0 0 0 0 0 0 0 0 0 0 0 0 0 0 0 0 0 0 0 0 0 1 0 0 3 10 10 6 5 4 0
0 0 0 0 0 0 0 0 0 0 0 0 0 0 0 0 0 0 0 0 0 0 0 0 0 0 0 0 0 0 0 0 2 5 10 12 13 1
0 0 0 0 0 0 0 0 0 0 0 0 0 0 0 0 0 0 0 0 0 0 0 0 0 0 0 0 0 0 0 0 0 0 0 8 17 10
0 0 0 0 0 0 0 0 0 0 0 0 0 0 0 0 0 0 0 0 0 0 0 0 0 0 0 0 0 0 0 0 0 0 0 0 1 2

GFSNE_con_sbcape_153.txt.gz
CAPE
0 0 0 2 4 5 7 7 7 1 0 0 0 1 4 3 4 3 5 4 1 0 0 0 1 1 0 0 0 0 0 1 3 3 1 35 146 157
0 1 1 2 3 6 4 5 5 6 1 0 1 2 2 0 0 1 0 0 0 0 0 0 0 1 0 1 0 0 0 2 2 2 4 1 9 59
0 0 1 4 2 7 6 5 4 5 4 0 1 2 0 0 1 2 0 3 5 0 0 3 3 2 1 2 1 1 0 1 1 1 3 4 4 4
0 0 0 1 3 5 6 4 3 4 6 5 2 0 0 1 1 4 1 0 1 0 1 5 3 5 6 5 4 2 2 2 1 1 1 1 1 2
0 1 1 3 6 8 6 4 3 3 4 5 3 0 0 0 0 2 5 8 9 7 7 10 9 9 9 10 9 7 5 4 2 2 1 1 1 1
1 4 5 5 8 12 7 6 5 4 2 1 0 0 0 0 2 3 4 15 4 1 4 14 16 15 14 12 15 13 10 8 6 4 2 1 0 1
1 2 8 5 5 7 10 11 9 6 2 1 0 0 0 0 0 5 8 15 14 4 1 14 23 20 11 11 13 17 13 11 9 6 5 4 3 2
3 5 7 6 0 1 4 5 9 11 8 7 5 6 6 6 0 4 10 14 6 2 5 10 12 10 18 19 17 14 14 12 10 8 6 5 4 5
5 6 11 16 3 1 0 1 4 5 6 12 11 13 13 15 5 0 3 13 11 8 3 13 7 21 11 16 21 16 16 14 12 7 7 5 4 4
6 7 7 10 7 2 1 0 2 4 10 14 12 11 13 12 6 4 2 4 15 6 9 6 13 13 21 13 10 10 6 13 14 11 7 5 5 3
1 7 3 6 5 3 0 0 0 1 3 3 3 2 2 4 4 0 0 0 1 4 12 7 13 9 11 34 15 5 1 2 3 6 7 7 5 3
1 1 3 3 3 3 2 1 0 1 2 1 3 2 2 3 2 5 5 2 3 1 6 9 13 11 10 22 13 10 29 1 1 2 6 7 7 16
6 8 8 3 3 3 2 2 1 1 0 1 2 5 4 3 6 5 5 6 6 8 9 11 11 12 13 12 9 5 14 12 14 12 2 4 7 18
5 6 5 1 3 2 2 1 0 0 2 1 2 4 5 4 7 4 2 3 3 4 3 7 14 12 9 1 2 2 5 9 12 8 11 10 6 7
7 2 0 0 0 0 0 0 0 1 1 0 2 5 8 9 3 3 0 0 0 0 4 1 9 9 9 4 3 5 4 3 6 7 8 15 18 27
0 0 0 0 0 0 0 0 1 1 1 2 2 2 2 2 2 2 1 0 0 0 0 0 1 4 5 9 3 4 5 4 3 6 9 9 14 19
0 0 0 0 0 0 0 0 0 0 0 0 0 0 0 0 0 0 0 0 0 0 0 0 0 0 1 2 3 5 5 5 6 7 6 8 12 16
0 0 0 0 0 0 0 0 0 0 0 0 0 0 0 0 0 0 0 0 0 0 0 0 0 0 0 0 0 2 3 5 6 6 8 10 8 10
0 0 0 0 0 0 0 0 0 0 0 0 0 0 1 0 0 0 0 0 0 0 0 0 0 0 0 0 0 0 3 7 9 8 9 13 15 6
0 0 0 0 0 0 0 0 0 0 0 0 0 0 1 1 0 0 0 1 0 0 0 0 0 0 0 0 2 1 0 3 8 10 11 9 10 0
0 0 0 0 0 0 0 0 0 0 0 0 0 0 0 0 1 1 2 0 0 0 0 0 0 0 0 0 0 0 0 0 2 8 13 15 12 6
0 0 0 0 0 0 0 0 0 0 0 0 1 2 2 1 1 2 3 4 1 1 0 0 0 0 0 0 0 0 0 0 0 0 0 9 24 25
0 0 0 0 0 0 0 0 0 0 0 0 0 1 2 1 1 2 3 3 2 1 1 1 0 0 0 0 0 1 0 0 0 0 0 0 1 2

GFSNE_con_sbcape_156.txt.gz
CAPE
0 0 0 0 3 4 2 2 1 0 0 0 0 0 3 4 1 3 7 0 7 2 3 4 4 3 2 1 3 4 3 2 1 0 1 3 2 53
0 0 0 1 1 5 3 3 1 1 0 0 0 2 3 0 0 8 9 0 5 1 5 3 4 5 3 2 1 1 1 1 2 3 2 2 3 3
0 0 0 0 0 1 3 3 3 1 1 0 0 1 0 0 2 8 8 5 16 6 15 6 3 3 3 4 3 4 5 1 2 0 1 2 3 4
0 0 0 0 0 1 1 2 2 2 2 1 0 0 0 0 4 9 9 16 4 11 11 12 11 6 8 5 5 6 6 5 3 2 1 1 2 3
0 0 0 1 1 1 1 0 0 0 0 0 0 0 0 0 0 7 8 15 10 9 11 16 21 15 13 14 9 9 9 7 6 4 3 2 2 2
0 1 4 4 9 6 0 1 0 0 0 0 0 0 0 0 0 3 9 16 12 7 11 20 15 23 16 13 15 20 15 13 10 8 6 3 1 3
0 1 6 5 3 6 8 10 5 1 0 0 0 0 0 0 0 0 10 9 11 7 12 24 26 21 25 15 17 20 14 19 14 13 11 8 5 5
2 3 6 6 2 0 2 2 7 8 7 6 2 1 3 3 0 2 7 15 10 3 8 28 42 26 27 23 21 19 22 23 17 16 12 10 8 5
12 14 13 14 6 5 1 0 1 2 3 13 10 14 13 15 9 3 7 12 18 12 7 32 16 34 27 18 13 13 20 18 18 15 12 9 8 7
19 13 15 13 7 4 3 4 5 6 8 13 13 13 15 13 9 5 4 11 22 18 11 18 17 17 41 11 2 7 4 7 16 19 18 9 7 5
14 11 10 10 3 1 2 1 3 5 3 0 1 1 2 2 6 2 3 2 12 21 15 14 19 17 19 36 9 2 4 2 5 6 7 9 6 15
10 12 2 4 2 1 4 3 1 5 6 5 9 8 5 7 2 11 15 11 15 9 14 16 20 15 18 53 22 35 24 2 3 6 10 9 8 27
11 15 13 2 1 1 1 3 2 5 4 7 11 15 14 13 11 11 14 15 13 16 15 18 23 19 14 13 17 15 22 25 25 23 7 8 9 20
8 10 6 0 1 1 2 0 0 2 9 10 10 13 16 18 18 14 7 8 9 10 12 14 19 18 17 10 8 10 16 19 17 18 25 23 8 9
10 1 0 0 0 0 0 0 0 8 8 8 10 14 14 14 11 12 8 5 4 4 5 3 15 13 18 16 12 12 8 10 12 14 19 26 40 34
0 0 0 0 0 0 1 1 3 4 5 7 6 6 3 3 4 5 7 8 6 7 2 1 5 7 7 12 7 8 10 9 10 14 18 22 25 21
1 2 2 0 0 0 0 0 0 0 0 1 1 0 0 0 0 0 0 0 0 0 0 0 4 2 3 1 4 8 11 10 14 15 10 15 22 25
0 0 1 1 0 0 0 0 0 0 0 0 0 0 0 0 0 0 0 0 0 0 0 0 0 1 0 0 0 4 6 8 11 14 12 14 15 17
0 0 1 1 0 0 0 0 0 0 0 0 0 1 4 1 0 0 0 0 0 0 0 0 0 0 1 5 2 0 2 6 8 10 10 14 19 14
0 0 0 0 0 0 0 0 0 0 0 0 1 3 5 4 2 1 0 2 0 0 0 0 0 0 0 2 11 9 0 2 4 5 8 8 10 0
0 0 0 0 0 0 0 0 1 1 2 5 5 2 7 3 3 2 5 1 0 0 0 0 0 0 0 0 3 6 3 0 0 3 7 8 7 4
0 0 0 0 0 0 1 1 3 2 1 1 5 7 9 7 6 6 8 8 4 3 0 0 0 0 0 0 0 3 4 2 0 0 0 1 14 15
0 0 0 1 1 1 0 0 0 1 0 0 2 2 5 7 4 8 9 8 5 3 2 2 2 1 3 0 0 9 3 2 1 1 2 0 0 0

GFSNE_con_sbcape_159.txt.gz
CAPE
0 0 0 0 0 0 0 0 0 0 0 0 0 0 0 0 0 4 6 11 1 1 13 11 12 9 1 5 3 8 9 8 3 3 0 0 2 5
0 0 0 0 0 0 0 0 0 0 0 0 0 0 0 0 0 6 7 16 0 5 13 8 10 12 8 2 3 5 7 5 3 2 5 3 2 1
0 0 0 0 0 0 0 0 0 0 0 0 0 0 0 0 0 6 7 4 12 14 23 13 10 10 9 7 7 8 8 8 6 4 2 1 1 2
0 0 0 0 0 0 0 0 0 0 0 0 0 0 0 0 0 4 4 15 10 22 25 13 13 11 11 11 14 11 9 8 9 10 8 6 3 1
0 0 0 0 0 0 0 0 0 0 0 0 0 0 0 0 0 1 5 17 2 15 10 11 9 8 10 15 16 16 17 12 10 10 7 6 6 5
0 1 1 1 2 0 0 0 0 0 0 0 0 0 0 0 0 0 4 9 6 3 11 18 18 17 12 10 16 15 18 21 17 13 11 6 7 7
0 0 3 1 0 1 2 3 1 0 0 0 0 0 0 0 0 0 2 6 9 0 1 21 28 15 28 12 14 20 17 21 23 20 15 13 10 9
1 2 4 2 1 0 0 0 3 4 5 5 2 2 2 2 1 1 2 8 6 1 2 40 32 21 11 18 14 11 18 17 23 32 22 16 11 8
9 9 9 10 4 3 1 0 0 2 4 11 6 8 5 7 5 2 3 6 13 2 2 26 8 44 23 8 7 7 6 12 18 20 23 20 21 6
14 8 10 7 2 2 3 3 4 4 2 8 8 7 7 6 5 4 3 5 34 7 6 13 15 16 36 15 0 10 3 4 7 21 18 15 21 25
9 2 5 4 1 0 2 1 3 3 3 0 0 0 2 3 7 2 2 3 18 9 9 9 26 14 37 17 16 1 4 5 6 8 10 7 7 27
8 10 0 1 0 0 3 4 1 3 5 5 11 8 7 8 3 21 12 6 17 5 10 8 33 34 15 31 35 28 50 3 5 6 13 9 9 24
13 13 9 0 0 0 0 1 0 1 5 9 11 15 16 15 20 17 14 10 5 8 12 10 25 25 14 14 17 33 42 23 34 23 8 15 10 29
11 11 3 0 0 0 1 0 0 2 11 11 11 12 11 13 14 11 2 5 4 2 5 8 13 15 20 8 12 26 29 22 33 28 38 22 10 11
9 1 0 0 0 0 0 0 0 8 10 9 9 9 11 10 13 11 8 4 0 0 8 11 14 17 23 16 14 23 20 17 26 26 28 47 47 37
0 0 0 0 0 0 0 1 2 2 4 4 5 4 2 1 1 2 3 5 4 4 7 5 5 7 3 4 5 13 21 10 24 24 25 33 44 42
3 4 7 5 2 1 0 0 0 0 1 1 1 0 0 0 0 0 0 0 0 0 0 0 11 0 0 0 2 8 13 18 23 23 23 26 43 36
0 4 4 4 0 0 0 0 0 0 0 0 0 0 0 0 0 0 0 0 0 0 0 0 0 0 0 0 0 0 2 8 16 23 21 20 25 32
0 1 4 2 0 0 0 0 0 0 0 0 1 1 3 1 1 0 0 0 0 0 0 0 0 0 0 1 1 0 0 1 7 8 13 16 20 16
0 0 2 0 0 0 0 0 0 0 0 0 2 3 4 4 2 1 1 1 0 0 0 0 0 0 0 0 7 4 0 0 2 1 1 1 13 0
0 0 0 0 0 0 0 1 1 1 1 3 4 2 5 3 2 1 3 0 0 0 0 0 0 0 0 0 1 1 1 0 0 0 0 1 5 0
0 0 0 0 0 0 3 3 5 4 2 0 2 4 5 4 3 2 3 3 1 0 0 0 0 0 0 0 0 4 3 3 0 0 0 0 0 3
0 0 0 0 1 1 0 2 0 1 0 0 1 1 2 4 2 3 5 3 2 1 1 0 0 0 1 2 0 3 3 7 2 1 1 0 0 0

GFSNE_con_sbcape_162.txt.gz
CAPE
0 0 0 0 0 0 0 0 0 0 0 0 0 0 0 0 0 0 11 7 6 21 15 12 15 14 12 7 6 5 13 10 8 7 8 5 8 4
0 0 0 0 0 0 0 0 0 0 0 0 0 0 0 0 0 0 5 1 13 13 8 11 14 17 19 15 5 7 6 12 14 12 10 8 5 5
0 0 0 0 0 0 0 0 0 0 0 0 0 0 0 0 0 1 8 0 15 17 8 12 9 13 13 10 13 15 15 17 16 15 15 14 8 4
0 0 0 0 0 0 0 0 0 0 0 0 0 0 0 0 0 0 7 7 17 13 6 2 4 12 14 14 15 15 11 12 17 12 13 13 12 11
0 0 0 0 0 0 0 0 0 0 0 0 0 0 0 0 0 0 5 9 0 9 20 9 5 5 5 13 19 16 17 14 15 13 10 9 10 12
0 0 0 0 0 0 0 0 0 0 0 0 0 0 0 0 0 0 0 15 0 0 0 25 1 5 8 7 17 21 19 26 20 21 12 8 9 11
0 0 0 0 0 0 0 0 0 0 0 0 0 0 0 0 0 0 0 0 0 0 0 4 16 0 0 5 7 16 18 28 37 35 24 14 11 13
0 0 0 0 0 0 0 1 0 0 0 0 0 0 0 0 0 0 0 0 2 0 0 3 1 7 0 0 8 7 15 24 24 31 29 23 13 11
0 0 1 0 0 0 0 1 1 0 0 0 0 0 0 0 0 0 0 0 0 0 0 5 0 4 1 0 10 5 6 9 26 16 17 25 28 12
0 0 0 0 0 0 0 0 0 0 0 0 0 0 0 0 0 0 0 1 0 0 0 0 0 0 3 0 3 15 6 6 12 11 12 13 24 33
0 0 0 0 0 1 0 0 0 0 0 0 0 1 4 3 1 0 0 0 0 0 0 0 0 0 2 0 0 11 2 10 6 19 9 10 4 6
0 0 0 0 0 0 0 0 0 0 0 0 0 0 2 0 0 0 0 0 0 0 0 0 0 0 0 0 0 0 0 0 0 3 20 16 1 0
0 0 0 0 0 0 0 0 0 0 0 1 1 2 0 0 0 0 0 0 0 0 0 0 0 0 0 0 0 0 0 0 0 0 3 10 24 2
0 0 0 0 0 0 0 0 0 0 1 0 0 1 0 0 0 0 0 0 0 0 0 0 0 0 0 0 0 0 0 0 0 0 0 8 0 8
0 0 0 0 0 0 0 0 0 0 0 0 0 0 0 0 0 0 0 0 0 0 0 0 0 0 0 0 0 0 0 0 0 0 0 1 0 1
0 0 0 0 0 0 0 0 0 0 0 0 0 0 0 0 0 0 0 0 0 0 0 0 0 0 0 0 0 0 0 0 0 0 0 0 1 0
0 0 0 0 0 0 0 0 0 0 0 0 0 0 0 0 0 0 0 0 0 0 0 0 0 0 0 0 0 0 0 0 0 0 0 0 0 0
0 0 0 0 0 0 0 0 0 0 0 0 0 0 0 0 0 0 0 0 0 0 0 0 0 0 0 0 0 0 0 0 0 0 0 0 0 0
0 0 0 0 0 0 0 0 0 0 0 0 0 0 0 0 0 0 0 0 0 0 0 0 0 0 0 0 0 0 0 0 0 0 0 0 0 0
0 0 0 0 0 0 0 0 0 0 0 0 0 0 0 0 0 0 0 0 0 0 0 0 0 0 0 0 0 0 0 0 0 0 0 0 0 0
0 0 0 0 0 0 0 0 0 0 0 0 0 0 0 0 0 0 0 0 0 0 0 0 0 0 0 0 0 0 0 1 0 0 0 0 0 0
0 0 0 0 0 0 0 0 0 0 0 0 0 0 0 0 0 0 0 0 0 0 0 0 0 0 0 0 0 0 0 0 0 0 0 0 0 0
0 0 0 0 0 0 0 0 0 0 0 0 0 0 0 0 0 0 0 0 0 0 0 0 0 0 0 0 0 0 0 0 0 0 0 0 0 0

GFSNE_con_sbcape_168.txt.gz
CAPE
0 0 0 0 0 0 0 0 0 0 0 0 0 0 0 0 0 0 0 5 2 1 9 14 21 20 22 12 15 9 10 8 9 8 8 17 16 6
0 0 0 0 0 0 0 0 0 0 0 0 0 0 0 0 0 0 0 0 5 3 3 4 4 7 8 8 11 10 16 10 14 13 8 16 22 25
0 0 0 0 0 0 0 0 0 0 0 0 0 0 0 0 0 0 0 0 2 9 2 4 3 5 9 9 16 18 30 23 13 26 23 28 24 21
0 0 0 0 0 0 0 0 0 0 0 0 0 0 0 0 0 0 0 0 1 29 9 2 4 3 6 5 15 19 27 30 27 29 23 21 29 36
0 0 0 0 0 0 0 0 0 0 0 0 0 0 0 0 0 0 0 0 0 2 16 2 6 3 3 8 19 24 21 36 24 21 24 15 17 20
0 0 0 0 0 0 0 0 0 0 0 0 0 0 0 0 0 0 0 0 0 2 15 0 0 2 3 5 12 32 27 33 33 29 16 26 24 19
0 0 0 0 0 0 0 0 0 0 0 0 0 0 0 0 0 0 0 0 0 0 1 7 0 0 0 0 5 23 29 31 36 33 24 16 16 22
0 0 0 0 0 0 0 0 0 0 0 0 0 0 0 0 0 0 0 0 2 0 0 0 0 0 0 0 12 16 29 32 25 20 21 15 11 12
0 0 0 0 0 0 1 0 0 0 0 0 0 0 0 0 0 0 0 0 0 0 0 0 0 0 0 0 14 18 15 48 9 5 7 2 7 10
0 0 0 0 0 0 0 0 0 0 0 0 0 0 0 0 0 0 0 0 0 0 0 0 0 0 0 0 9 10 11 19 13 11 5 2 1 5
0 0 0 0 0 1 0 0 0 0 0 0 0 1 2 1 0 0 0 1 0 0 0 0 0 0 0 0 0 1 6 5 33 19 13 1 0 1
0 0 0 0 2 0 0 0 0 0 0 0 0 0 0 0 0 0 0 0 0 0 0 0 0 0 0 0 0 0 0 1 6 32 13 10 0 0
0 0 0 0 1 0 0 0 0 0 0 0 0 0 0 0 0 0 0 0 0 0 0 0 0 0 0 0 0 0 0 0 0 0 4 8 9 3
0 0 0 0 1 0 0 0 0 0 0 0 0 0 0 0 0 0 0 0 0 0 0 0 0 0 0 0 0 0 0 0 0 0 0 0 0 1
0 0 0 0 0 0 2 0 0 0 0 0 0 0 0 0 0 0 0 0 0 0 0 0 0 0 0 0 0 0 0 0 0 0 0 0 0 0
0 0 0 0 0 0 0 0 0 0 0 0 0 0 0 0 0 0 0 0 0 0 0 0 0 0 0 0 0 0 0 0 0 0 0 0 0 0
0 0 0 0 0 0 0 0 0 0 0 0 0 0 0 0 0 0 0 0 0 0 0 0 0 0 0 0 0 0 0 0 0 0 0 0 0 0
0 0 0 0 0 0 0 0 0 0 0 0 0 0 0 0 0 0 0 0 0 0 0 0 0 0 0 0 0 0 0 0 0 0 0 0 0 0
0 0 0 0 0 0 0 0 0 0 0 0 0 0 0 0 0 0 0 0 0 0 0 0 0 0 0 0 0 0 0 0 0 0 0 0 0 0
0 0 0 0 0 0 0 0 0 0 0 0 0 0 0 0 0 0 0 0 0 0 0 0 0 0 0 0 0 0 0 0 0 0 0 0 0 0
0 0 0 0 0 0 0 0 0 0 0 0 0 0 0 0 0 0 0 0 0 0 0 0 0 0 0 0 0 0 0 0 0 0 0 0 0 0
0 0 0 0 0 0 0 0 0 0 0 0 0 0 0 0 0 0 0 0 0 0 0 0 0 0 0 0 0 0 0 0 0 0 0 0 0 0
0 0 0 0 0 0 0 0 0 0 0 0 0 0 0 0 0 0 0 0 0 0 0 0 0 0 0 0 0 0 0 0 0 0 0 0 0 0